Location: Leipzig
(51.3203°N, 12.3761°E)
Time: 03:26:38
(UTC+01:00)

ISS - Pass Details

Date: 06 December 2021
Orbit: 413 x 422 km, 51.6° (Epoch: 24 January)

Event Time Altitude Azimuth Distance (km) Brightness Sun altitude
Rises 17:52:30 0° 284° (WNW) 2,386 1.2 -16.0°
Reaches altitude 10° 17:54:51 10° 270° (W) 1,515 0.3 -16.4°
Maximum altitude 17:57:40 24° 214° (SW) 914 -1.5 -16.8°
Drops below altitude 10° 18:00:28 10° 158° (SSE) 1,503 -1.0 -17.2°
Enters shadow 18:01:13 - 152° (SSE) 1,767 -0.7 -17.4°
